Regional Weather Roundup
Issued by NWS

Home | Current Version | Previous Version | Text Only | Print | Product List | Glossary On
Versions: 1 2 3 4 5 6 7 8 9 10 11 12 13 14 15 16 17 18 19 20 21 22 23 24 25 26 27
000
ASCA42 TJSJ 280610
RWRPR
PUERTO RICO/U.S. VIRGIN ISLANDS HOURLY WEATHER ROUNDUP
NATIONAL WEATHER SERVICE SAN JUAN PR
200 AM AST SUN MAY 28 2017

PRZ001>002-007>008-010-280700-
PUERTO RICO

CITY           SKY/WX    TMP DP  RH WIND       PRES   REMARKS
SAN JUAN LMM   PTCLDY    81  72  74 E5        30.04F
AGUADILLA      CLEAR     73  72  94 E6        30.08S
CEIBA          PTCLDY    79  73  83 E5        30.06F
$$

VIZ001>002-280700-
U.S. VIRGIN ISLANDS

CITY           SKY/WX    TMP DP  RH WIND       PRES   REMARKS
CHARLOTTE AMA  PTCLDY    81  73  78 E6        30.02F
CHRISTIANSTED  CLEAR     77  72  83 NE6       30.03F
$$

HOURLY WEATHER ROUNDUP FOR THE NEWS MEDIA

CITY           SKY/WX    TMP DP  RH WIND       PRES   REMARKS
ORLANDO        CLEAR     72  64  76 W6        30.00F
NEW YORK       MOCLDY    59  58  96 SE3       29.92S
NEWARK         PTCLDY    61  57  87 E3        29.90S
CHICAGO        CLOUDY    62  55  77 S3        29.81F
HARTFORD       PTCLDY    53  51  93 S5        29.93F
BOSTON         CLOUDY    55  53  93 S8        29.91F
DALLAS         PTCLDY    83  73  72 S14       29.75F
PHILADELPHIA   MOCLDY    64  60  87 CALM      29.91S
LOS ANGELES    CLEAR     61  56  83 W9        30.03S
WASHINGTON DC  PTCLDY    61  59  93 CALM      29.89S



USA.gov is the U.S. government's official web portal to all federal, state and local government web resources and services.